This is the latest recevied weather packets stored in our database for station/object SP1BMW-13. If no packets are shown the sender has not sent any weather packets the latest 1 day(s).
| Time | Temp. | Humidity | Pressure | Rain* | Wind** | Luminosity | Snow |
|---|---|---|---|---|---|---|---|
| 1777963546 | 11.11° C | 96% | 1010.1 hPa | 3.3 mm | 0 m/s | 35 W/m² | - |
| 1777963486 | 11.11° C | 96% | 1010.3 hPa | 3.56 mm | 0 m/s | 38 W/m² | - |
| 1777963426 | 11.11° C | 96% | 1010.2 hPa | 3.3 mm | 0 m/s | 38 W/m² | - |
| 1777963366 | 11.11° C | 96% | 1010.1 hPa | 3.3 mm | 0 m/s | 38 W/m² | - |
| 1777963306 | 11.11° C | 96% | 1010.2 hPa | 3.3 mm | 0 m/s | 38 W/m² | - |
| 1777963247 | 11.11° C | 96% | 1010.2 hPa | 3.3 mm | 0 m/s | 38 W/m² | - |
| 1777963187 | 11.11° C | 96% | 1010.2 hPa | 3.05 mm | 0 m/s | 38 W/m² | - |
| 1777963126 | 11.11° C | 97% | 1010.1 hPa | 3.05 mm | 0 m/s | 38 W/m² | - |
| 1777963066 | 11.11° C | 97% | 1010.3 hPa | 3.05 mm | 0 m/s | 38 W/m² | - |
| 1777963006 | 11.11° C | 97% | 1010.1 hPa | 2.79 mm | 0 m/s | 39 W/m² | - |
| 1777962946 | 10.56° C | 96% | 1010 hPa | 2.79 mm | 0 m/s | 41 W/m² | - |
| 1777962886 | 10.56° C | 97% | 1010.1 hPa | 2.79 mm | 0.45 m/s, 0° | 42 W/m² | - |
| 1777962826 | 10.56° C | 97% | 1010 hPa | 2.79 mm | 0.45 m/s, 314° | 43 W/m² | - |
| 1777962767 | 10.56° C | 97% | 1010.2 hPa | 2.54 mm | 0 m/s | 44 W/m² | - |
| 1777962707 | 10.56° C | 97% | 1010.2 hPa | 2.54 mm | 0 m/s | 44 W/m² | - |
| 1777962646 | 10.56° C | 96% | 1010.2 hPa | 2.54 mm | 0 m/s | 44 W/m² | - |
| 1777962586 | 10.56° C | 96% | 1010.2 hPa | 2.79 mm | 0 m/s | 43 W/m² | - |
| 1777962527 | 10.56° C | 97% | 1010.2 hPa | 2.54 mm | 0 m/s | 41 W/m² | - |
| 1777962466 | 10.56° C | 97% | 1010.3 hPa | 2.54 mm | 0 m/s | 38 W/m² | - |
| 1777962407 | 10.56° C | 97% | 1010.2 hPa | 2.54 mm | 0 m/s | 36 W/m² | - |
| 1777962346 | 10.56° C | 97% | 1010.3 hPa | 2.29 mm | 0 m/s | 36 W/m² | - |
| 1777962286 | 10.56° C | 97% | 1010.2 hPa | 2.29 mm | 0 m/s | 34 W/m² | - |
| 1777962226 | 10.56° C | 96% | 1010.1 hPa | 2.29 mm | 0 m/s | 33 W/m² | - |
| 1777962166 | 10.56° C | 97% | 1010.2 hPa | 2.29 mm | 0 m/s | 32 W/m² | - |
| 1777962106 | 10.56° C | 97% | 1010.2 hPa | 2.03 mm | 0 m/s | 32 W/m² | - |
* Rain latest hour (hover to see other rain measurements)
** Current wind speed in m/s (hover to see current wind gust speed)